{"data":{"norad_id":65654,"intl_designator":"2025-211C","name":"STARLINK-35227","alt_names":[],"object_type":"PAYLOAD","status":"ACTIVE","operator":null,"country":"US","launch_date":"2025-09-19","launch_site_code":"AFWTR","launch_vehicle":null,"mission":null,"orbit_class":"UNKNOWN","rcs_meters":null,"size_class":null,"mass_kg":null,"dimensions":null,"purposes":["comms"],"wikipedia_slug":null,"has_3d_model":false,"image_url":null,"decayed_at":null,"tle_current":{"epoch":"2026-05-25T01:47:25.512576Z","epoch_age_seconds":61887,"freshness":"FRESH","line1":"1 65654U 25211C   26145.07460084 -.00006217  00000+0 -42732-3 0  9992","line2":"2 65654  97.4502 188.9597 0001899 149.4483 210.6855 15.05636893 38534","mean_motion":15.05636893,"eccentricity":0.0001899,"inclination_deg":97.4502,"raan_deg":188.9597,"arg_perigee_deg":149.4483,"mean_anomaly_deg":210.6855,"bstar":-0.00042732,"rev_number":3853,"period_min":95.64058948707,"perigee_km":548.2357907345,"apogee_km":550.86692677315,"semimajor_km":6927.6883587538,"source":"CELESTRAK","updated_at":"2026-05-25T13:38:20.887934Z"}}}